Location: Hackbridge
(51.3833°N, 0.1500°W)
Time: 16:34:55
(UTC+00:00)

Meteor 2-10 - Pass Details

Date: 13 October 2019
Orbit: 738 x 869 km, 81.2° (Epoch: 14 November)

Event Time Altitude Azimuth Distance (km) Brightness Sun altitude
Rises 19:00:56 0° 187° (S) 3,221 7.2 -17.7°
Reaches altitude 10° 19:03:18 10° 186° (S) 2,283 6.4 -18.0°
Maximum altitude 19:08:24 79° 101° (E) 765 3.8 -18.8°
Drops below altitude 10° 19:13:28 10° 15° (NNE) 2,261 6.4 -19.6°
Sets 19:15:47 0° 14° (NNE) 3,186 7.2 -19.9°
